Le nostre stazioni meteo in Italia

Pubblicità
Il mio iltempo24.it
Rodkallen, Svezia (2188): Temperatura & dewpoint: 17.08.2017 10:00:00 - 23.08.2017 10:00:00 (CEST)Rodkallen, Svezia (2188): velocità del vento & gusts: 17.08.2017 10:00:00 - 23.08.2017 10:00:00 (CEST)Rodkallen, Svezia (2188): direzione del vento: 17.08.2017 10:00:00 - 23.08.2017 10:00:00 (CEST)Rodkallen, Svezia (2188): visibility: 17.08.2017 10:00:00 - 23.08.2017 10:00:00 (CEST)Rodkallen, Svezia (2188): precipitazioni: 17.08.2017 10:00:00 - 23.08.2017 10:00:00 (CEST)
Data & Tempo tt [°C] td [°C] ff [km/h] ff [kn] fx [km/h] fx [kn] dd vv [km] rr [mm]
23.08.2017 10:00:00 - - - - - - - - -
23.08.2017 09:00:00 9,8 5,6 29 16 38 21 N 44 0,0
23.08.2017 08:00:00 9,0 6,3 26 14 36 20 NNO 50 0,0
23.08.2017 07:00:00 8,6 6,0 26 14 37 20 NNO 50 0,0
23.08.2017 06:00:00 8,6 6,6 21 11 34 18 NNO 50 0,0
23.08.2017 05:00:00 8,8 6,2 26 14 39 21 NNO 50 0,0
23.08.2017 04:00:00 9,1 6,5 23 12 36 19 NNO 50 0,0
23.08.2017 03:00:00 9,6 6,5 24 13 37 20 NNO 50 0,0
23.08.2017 02:00:00 10,0 7,2 22 12 34 18 NNO 50 0,0
23.08.2017 01:00:00 10,8 6,7 27 15 36 20 N 50 0,0
23.08.2017 00:00:00 11,3 7,0 24 13 32 17 N 50 0,0
22.08.2017 23:00:00 11,7 7,2 22 12 36 20 N 50 0,0
22.08.2017 22:00:00 11,9 6,8 26 14 36 19 N 50 0,0
22.08.2017 21:00:00 12,0 7,1 26 14 39 21 N 48 0,0
22.08.2017 20:00:00 12,5 7,8 26 14 36 19 N 50 0,0
22.08.2017 19:00:00 13,3 7,5 23 13 32 17 N 50 0,0
22.08.2017 18:00:00 13,9 7,0 21 11 34 18 NNO 50 0,0
22.08.2017 17:00:00 14,6 7,9 22 12 35 19 NNO 50 0,0
22.08.2017 16:00:00 14,5 7,3 26 14 37 20 N 40 0,0
22.08.2017 15:00:00 14,1 7,4 26 14 37 20 N 47 0,0
22.08.2017 14:00:00 14,0 8,0 27 15 40 21 N 50 0,0
22.08.2017 13:00:00 13,0 8,7 31 17 47 25 N 50 0,0
22.08.2017 12:00:00 12,2 8,5 32 17 44 24 N 50 0,0
22.08.2017 11:00:00 11,1 8,3 27 15 44 24 NNO 50 0,0
22.08.2017 10:00:00 10,9 8,6 29 16 46 25 NNO 50 0,0
22.08.2017 09:00:00 10,8 8,7 31 17 47 25 NNO 50 0,0
22.08.2017 08:00:00 10,9 9,0 31 17 47 25 NNO 50 0,0
22.08.2017 07:00:00 10,8 9,4 29 16 45 24 NNO 50 0,0
22.08.2017 06:00:00 10,9 10,1 27 15 44 24 NNO 50 0,0
22.08.2017 05:00:00 10,8 10,2 29 16 49 26 NNO 7 0,0
22.08.2017 04:00:00 11,2 10,4 28 15 41 22 NNO 14 0,0
22.08.2017 03:00:00 11,2 11,2 26 14 39 21 NNO 6 0,0
22.08.2017 02:00:00 11,5 11,3 27 15 43 23 NNO 8 0,0
22.08.2017 01:00:00 11,6 11,4 27 14 39 21 NNO 13 0,0
22.08.2017 00:00:00 11,9 11,7 24 13 40 21 NNO 16 0,5
21.08.2017 23:00:00 12,4 12,1 24 13 38 20 N 12 2,0
21.08.2017 22:00:00 12,5 12,2 25 13 37 20 NNO 10 0,4
21.08.2017 21:00:00 13,3 12,5 24 13 32 18 N 50 0,0
21.08.2017 20:00:00 13,5 13,0 21 12 28 15 N 50 0,0
21.08.2017 19:00:00 13,9 13,4 15 8 21 11 N 50 0,0
21.08.2017 18:00:00 14,0 13,8 13 7 16 8 ONO 24 0,0
21.08.2017 17:00:00 12,7 12,2 11 6 16 9 SSO 48 0,0
21.08.2017 16:00:00 12,9 12,0 14 7 17 9 S 45 0,0
21.08.2017 15:00:00 13,0 11,9 12 7 17 9 S 34 0,0
21.08.2017 14:00:00 12,5 11,6 13 7 16 8 S 38 0,0
21.08.2017 13:00:00 12,4 11,8 13 7 16 9 SSO 34 0,0
21.08.2017 12:00:00 12,1 11,8 14 7 17 9 S 43 0,0
21.08.2017 11:00:00 11,8 11,5 15 8 21 11 S 32 0,0
21.08.2017 10:00:00 11,5 11,3 14 8 19 10 S 32 0,0
21.08.2017 09:00:00 11,2 10,9 17 9 26 14 SSO 34 0,0
21.08.2017 08:00:00 11,2 11,0 21 11 26 14 S 22 0,0
21.08.2017 07:00:00 11,4 11,1 23 12 29 16 SSO 23 0,0
21.08.2017 06:00:00 11,5 11,2 24 13 31 17 SSO 30 0,0
21.08.2017 05:00:00 11,2 11,0 25 13 30 16 S 15 0,0
21.08.2017 04:00:00 11,6 11,4 24 13 34 19 SSO 24 0,0
21.08.2017 03:00:00 11,8 11,3 29 15 34 19 S 19 0,0
21.08.2017 02:00:00 11,5 11,2 29 16 35 19 S 15 0,0
21.08.2017 01:00:00 11,6 11,1 27 14 37 20 S 16 0,0
21.08.2017 00:00:00 11,5 11,0 30 16 40 21 S 15 0,0
20.08.2017 23:00:00 12,0 11,5 34 19 42 23 S 17 0,1
20.08.2017 22:00:00 12,0 11,7 34 18 47 26 SSO 13 1,0
20.08.2017 21:00:00 12,0 11,2 40 22 52 28 S 16 0,0
20.08.2017 20:00:00 12,1 11,9 39 21 57 31 S 11 2,1
20.08.2017 19:00:00 12,5 11,7 51 28 66 36 S 12 0,0
20.08.2017 18:00:00 13,0 11,7 53 29 67 36 S 13 0,0
20.08.2017 17:00:00 13,4 12,0 55 30 69 37 S 14 0,0
20.08.2017 16:00:00 13,6 11,8 54 29 69 38 S 16 0,0
20.08.2017 15:00:00 14,0 11,9 55 30 67 36 S 14 0,0
20.08.2017 14:00:00 14,1 12,0 50 27 64 35 S 18 0,0
20.08.2017 13:00:00 14,2 12,1 52 28 64 34 S 17 0,0
20.08.2017 12:00:00 14,1 12,5 46 25 62 34 S 14 0,0
20.08.2017 11:00:00 14,1 12,3 45 24 58 31 S 17 0,0
20.08.2017 10:00:00 14,1 12,5 46 25 58 32 S 18 0,0
20.08.2017 09:00:00 13,8 12,5 40 22 53 29 S 16 0,0
20.08.2017 08:00:00 13,9 12,5 41 22 52 28 S 17 0,0
20.08.2017 07:00:00 13,8 12,4 43 23 51 28 S 18 0,0
20.08.2017 06:00:00 13,6 12,5 40 22 52 28 S 28 0,0
20.08.2017 05:00:00 13,6 12,5 41 22 51 28 S 27 0,0
20.08.2017 04:00:00 14,0 13,0 45 25 59 32 S 24 0,0
20.08.2017 03:00:00 14,5 13,7 48 26 62 33 S 27 0,0
20.08.2017 02:00:00 14,9 13,9 49 26 58 32 S 27 0,0
20.08.2017 01:00:00 15,0 14,2 40 22 54 29 S 29 0,0
20.08.2017 00:00:00 15,2 14,7 32 17 48 26 SSE 44 0,5
19.08.2017 23:00:00 15,2 15,2 29 16 45 24 E 9 0,5
19.08.2017 22:00:00 15,1 15,1 34 19 45 24 E 2,7 0,7
19.08.2017 21:00:00 15,0 14,8 29 16 35 19 E 8 0,5
19.08.2017 20:00:00 14,8 14,5 20 11 26 14 ENE 12 0,1
19.08.2017 19:00:00 14,8 14,6 22 12 25 13 ENE 12 0,7
19.08.2017 18:00:00 14,7 14,4 19 10 22 12 NE 11 0,5
19.08.2017 17:00:00 14,6 14,6 13 7 16 9 ENE 10 0,0
19.08.2017 16:00:00 14,6 14,6 10 6 14 7 ENE 6 0,0
19.08.2017 15:00:00 14,9 14,6 10 5 16 9 E 11 0,0
19.08.2017 14:00:00 15,0 14,5 12 7 18 10 ESE 15 0,0
19.08.2017 13:00:00 14,9 14,6 12 7 18 10 SE 10 0,0
19.08.2017 12:00:00 14,9 14,6 14 8 21 11 SE 10 0,0
19.08.2017 11:00:00 15,0 14,7 15 8 22 12 SE 11 0,0
19.08.2017 10:00:00 14,7 14,5 18 10 23 13 SE 18 0,0
19.08.2017 09:00:00 14,2 14,2 17 9 22 12 SE 3,9 0,2
19.08.2017 08:00:00 14,4 14,4 12 6 16 8 SSE 4,0 0,1
19.08.2017 07:00:00 14,3 14,3 8 5 21 11 SSE 8 0,3
19.08.2017 06:00:00 14,4 14,4 17 9 21 11 SSE 9 0,0
19.08.2017 05:00:00 13,7 13,7 11 6 19 10 S 0,2 0,0
19.08.2017 04:00:00 13,9 13,6 15 8 21 12 SSO 19 0,0
19.08.2017 03:00:00 14,3 14,0 20 11 24 13 SSO 27 0,0
19.08.2017 02:00:00 14,2 14,2 18 10 23 12 S 14 0,0
19.08.2017 01:00:00 14,3 14,1 17 9 23 12 S 10 0,0
19.08.2017 00:00:00 14,5 14,2 18 10 22 12 S 16 0,0
18.08.2017 23:00:00 14,6 14,1 16 9 19 11 S 18 0,0
18.08.2017 22:00:00 14,9 14,6 16 9 20 11 SSE 16 0,0
18.08.2017 21:00:00 14,8 14,6 10 5 14 8 SE 7 0,0
18.08.2017 20:00:00 14,9 14,7 12 6 19 10 SE 14 0,0
18.08.2017 19:00:00 14,9 14,6 13 7 18 10 SE 13 0,0
18.08.2017 18:00:00 15,1 14,8 13 7 18 10 SE 15 0,0
18.08.2017 17:00:00 15,1 14,9 14 7 21 11 ESE 13 0,0
18.08.2017 16:00:00 15,1 14,8 16 8 19 11 SE 11 0,0
18.08.2017 15:00:00 15,0 14,7 14 8 25 13 SE 9 0,1
18.08.2017 14:00:00 15,1 14,3 21 11 24 13 SE 20 0,0
18.08.2017 13:00:00 15,4 14,3 16 9 26 14 ESE 22 0,0
18.08.2017 12:00:00 15,1 14,0 18 10 22 12 E 26 0,0
18.08.2017 11:00:00 15,0 13,9 13 7 18 10 E 29 0,0
18.08.2017 10:00:00 15,2 14,1 11 6 20 11 SE 28 0,0
18.08.2017 09:00:00 14,6 13,6 15 8 21 12 ESE 34 0,0
18.08.2017 08:00:00 14,4 13,4 18 10 27 14 ESE 35 0,0
18.08.2017 07:00:00 14,4 13,1 23 12 29 15 E 43 0,0
18.08.2017 06:00:00 14,2 12,8 21 11 24 13 E 50 0,0
18.08.2017 05:00:00 14,5 12,4 19 10 26 14 ESE 50 0,0
18.08.2017 04:00:00 14,6 11,9 21 11 25 14 ESE 50 0,0
18.08.2017 03:00:00 14,5 12,0 17 9 21 11 ESE 50 0,0
18.08.2017 02:00:00 14,3 11,8 14 7 19 10 ESE 50 0,0
18.08.2017 01:00:00 14,4 11,2 15 8 24 13 SE 50 0,0
18.08.2017 00:00:00 14,4 12,1 19 10 24 13 SSE 50 0,0
17.08.2017 23:00:00 14,2 12,9 18 10 25 13 SE 50 0,0
17.08.2017 22:00:00 13,9 12,8 13 7 18 10 ESE 50 0,0
17.08.2017 21:00:00 14,4 12,4 14 7 22 12 SSE 50 0,0
17.08.2017 20:00:00 14,4 12,6 18 10 22 12 SSE 50 0,0
17.08.2017 19:00:00 14,7 12,0 19 11 23 12 SSE 44 0,0
17.08.2017 18:00:00 15,1 11,9 18 10 26 14 S 42 0,0
17.08.2017 17:00:00 15,0 12,0 18 10 31 17 S 35 0,0
17.08.2017 16:00:00 15,5 11,9 27 15 32 18 S 35 0,0
17.08.2017 15:00:00 15,4 12,2 26 14 31 17 S 36 0,0
17.08.2017 14:00:00 15,3 11,5 20 11 27 14 S 37 0,0
17.08.2017 13:00:00 15,4 12,0 16 9 24 13 SSO 42 0,0
17.08.2017 12:00:00 14,8 11,6 20 11 27 15 SSO 36 0,0
17.08.2017 11:00:00 13,9 10,9 25 14 31 17 SSO 41 0,0
17.08.2017 10:00:00 13,7 10,7 26 14 32 17 SO 50 0,0

tt = Temperatura
td = dewpoint
ff = velocità del vento
fx = gusts
dd = direzione del vento
vv = visibility
rr = precipitazioni

Stazioni seguenti

WeatherPro
AMSI
MeteoEarth